#timestamp,LO_Frequency,Hit,StdDev 
1576987215.0,286047002.1,N
1576987215.9,286047002.1,N
1576987235.8,286047002.5,N
1576987255.6,286047001.5,N
1576987275.4,286047001.7,N
1576987295.3,286047001.6,N
1576987315.1,286047002.4,N
1576987335.9,286046999.7,N
1576987355.7,286047001.9,N
1576987375.5,286046999.7,N
1576987395.4,286047002.8,N
1576987415.2,286047002.7,N
1576987435.0,286046999.9,N
1576987435.9,286046999.9,N
1576987455.8,286047000.5,N
1576987475.6,286047000.0,N
1576987495.5,286046998.8,N
1576987515.3,286047000.4,N
1576987535.1,286047002.7,N
1576987555.9,286047002.6,N
1576987575.7,286047002.8,N
1576987595.5,286047000.3,N
1576987615.4,286047001.0,N
1576987635.2,286047000.5,N
1576987655.1,286047002.8,N
1576987656.0,286047002.8,N
1576987675.8,286047000.3,N
1576987695.6,286047000.9,N
1576987715.5,286046998.3,N
1576987735.3,286046999.9,N
1576987755.1,286047000.6,N
1576987775.9,286047000.9,N
1576987795.7,286047002.4,N
1576987815.6,286046999.7,N
1576987865.4,286047002.1,E
1576987875.3,286047001.2,N
1576987895.2,286046998.6,P
1576987915.0,286046997.2,N
1576987915.9,286046997.2,N
1576987935.8,286046997.8,N
1576987955.6,286046997.3,N
1576987975.4,286046999.6,N
1576987995.3,286046996.9,N
1576988015.1,286046996.7,N
1576988035.8,286046996.9,N
1576988055.7,286046999.4,N
1576988075.5,286046997.7,N
1576988095.4,286046996.9,N
1576988115.2,286046997.3,N
1576988135.0,286046999.5,N
1576988135.9,286046999.5,N
1576988155.8,286046996.7,N
1576988175.6,286046997.0,N
1576988195.5,286046996.6,N
1576988215.3,286046996.8,N
1576988235.1,286046998.0,N
1576988255.9,286046997.5,N
1576988275.7,286046996.7,N
1576988295.5,286046997.1,N
1576988315.4,286046997.7,N
1576988335.2,286046996.8,N
1576988355.0,286046998.0,N
1576988356.0,286046998.0,N
1576988375.8,286046996.6,Y
1576988395.6,286046999.9,P
1576988415.5,286046999.8,N
1576988435.3,286046999.9,N
1576988455.1,286047002.8,N
1576988475.9,286047002.1,N
1576988495.7,286047002.8,N
1576988515.6,286047000.0,N
1576988535.4,286047000.1,N
1576988555.2,286047001.1,N
1576988575.1,286046998.1,N
1576988576.0,286046998.1,N
1576988595.8,286047001.2,N
1576988615.6,286047000.9,N
1576988635.5,286047001.0,N
1576988655.3,286047001.0,N
1576988675.2,286047000.6,N
1576988695.9,286046998.5,N
1576988715.7,286047000.8,N
1576988735.6,286046998.1,N
1576988755.4,286047001.2,N
1576988775.2,286047001.1,N
1576988795.1,286046998.9,N
1576988796.0,286046998.9,N
1576988815.8,286046998.5,N
1576988835.7,286046998.1,N
1576988855.5,286047000.7,N
1576988875.3,286046998.2,N
1576988895.2,286046998.2,N
1576988915.0,286047000.9,N
1576988915.9,286047000.9,N
1576988935.8,286047001.2,N
1576988955.6,286047000.3,N
1576988975.4,286046998.5,N
1576988995.3,286046999.0,N
1576989015.1,286046999.0,N
1576989035.8,286046999.4,N
1576989055.7,286046998.3,N
1576989075.5,286046998.6,N
1576989095.4,286047001.1,N
1576989115.2,286046998.5,N
1576989135.0,286046999.7,N
1576989135.9,286046999.7,N
1576989155.8,286046998.1,N
1576989175.6,286047001.1,N
1576989195.4,286047001.9,N
1576989215.3,286047002.6,N
1576989235.1,286047000.1,N
1576989255.9,286047001.5,N
1576989275.7,286047002.0,N
1576989295.5,286047002.1,N
1576989315.4,286047002.2,N
1576989335.2,286047004.4,Y
1576989355.0,286047001.6,P
1576989355.9,286047001.6,N
1576989375.8,286047004.4,P
1576989395.6,286047004.4,N
1576989415.5,286047002.2,N
1576989435.3,286047001.6,N
1576989455.1,286047001.3,N
1576989475.9,286047002.4,N
1576989495.7,286047004.2,Y
1576989515.5,286046998.5,P
1576989535.4,286046998.3,N
1576989555.2,286047000.7,N
1576989575.1,286047000.8,N
1576989576.0,286047000.8,N
1576989595.8,286046998.6,N
1576989615.6,286047000.4,N
1576989635.5,286047002.7,N
1576989655.3,286047000.6,N
1576989675.1,286047000.8,N
1576989695.9,286046998.3,N
1576989715.7,286046998.6,N
1576989735.6,286046998.6,N
1576989755.4,286046998.2,N
1576989775.2,286046998.7,N
1576989795.1,286047001.1,N
1576989796.0,286047001.1,N
1576989815.8,286046999.4,N
1576989835.6,286047001.2,N
1576989855.5,286046998.9,N
1576989875.3,286046998.4,N
1576989895.2,286047000.7,N
1576989915.9,286047000.9,N
1576989935.7,286046998.3,N
1576989955.6,286046998.7,N
1576989975.4,286046999.4,N
1576989995.2,286046999.4,N
1576990015.1,286046998.2,N
1576990016.0,286046998.2,N
1576990035.8,286046999.5,N
1576990055.7,286046999.2,N
1576990075.5,286046998.4,N
1576990095.3,286046999.3,N
1576990115.2,286046996.9,N
1576990135.0,286046999.6,N
1576990135.9,286046999.6,N
1576990155.8,286046999.2,N
1576990175.6,286046997.1,N
1576990195.4,286046999.1,N
1576990215.3,286046998.1,N
1576990235.1,286046998.1,N
1576990236.0,286046998.1,N
1576990255.8,286046998.3,N
1576990275.7,286046998.8,N
1576990295.5,286047001.2,N
1576990315.3,286047000.7,N
1576990335.2,286046998.9,N
1576990355.0,286047001.1,N
1576990355.9,286047001.1,N
1576990375.8,286047002.3,N
1576990395.6,286047000.2,N
1576990415.4,286046998.1,N
1576990435.3,286046998.9,N
1576990455.1,286046998.3,N
1576990475.9,286046998.6,N
1576990495.7,286046998.3,N
1576990515.5,286046998.4,N
1576990535.4,286046998.6,N
1576990555.2,286046997.0,N
1576990575.0,286046997.2,N
1576990575.9,286046997.2,N
1576990595.8,286046996.7,N
1576990615.6,286046996.5,N
1576990635.5,286046999.3,N
1576990655.3,286046996.6,N
1576990675.1,286046998.4,N
1576990695.9,286046999.3,N
1576990715.7,286046999.3,N
1576990735.5,286046999.1,N
1576990755.4,286046996.7,N
1576990775.2,286046996.9,N
1576990795.1,286046997.7,N
1576990796.0,286046997.7,N
